Change the Weather History Date:

Sunday, September 29, 2013

  Actual Average Record
Temperature  
Mean Temperature 63 °F 54 °F  
Max Temperature 67 °F 73 °F 95 °F (1992)
Min Temperature 59 °F 36 °F 27 °F (1954)
Degree Days  
Heating Degree Days 2 11  
Month to date heating degree days 135 172  
Since 1 July heating degree days 135 213  
Cooling Degree Days 0 0  
Month to date cooling degree days 78 39  
Year to date cooling degree days 878 505  
Growing Degree Days 13 (Base 50)    
Moisture  
Dew Point 38 °F    
Average Humidity 45    
Maximum Humidity 60    
Minimum Humidity 30    
Precipitation  
Precipitation 0.00 in 0.02 in 0.64 in (2014)
Month to date precipitation 1.77 0.38  
Year to date precipitation 5.00 6.71  
Sea Level Pressure  
Sea Level Pressure 29.72 in    
Wind  
Wind Speed 23 mph (SSW)    
Max Wind Speed 40 mph    
Max Gust Speed 49 mph    
T = Trace of Precipitation, MM = Missing Value Source: NWS Daily Summary

Daily Weather History Graph

Daily Weather History Graph

Search for Another Location

Airport or City:

Trip Planner

Search our weather history database for the weather conditions in past years. The results will help you decide how hot, cold, wet, or windy it might be!

Date:

Astronomy

Sep. 29, 2013 Rise Set
Actual Time 6:46 AM PDT 6:35 PM PDT
Civil Twilight 6:18 AM PDT 7:03 PM PDT
Nautical Twilight 5:45 AM PDT 7:36 PM PDT
Astronomical Twilight 5:12 AM PDT 8:09 PM PDT
Moon 1:26 AM PDT (9/29) 3:39 PM PDT (9/29)
Length of Visible Light 12h 45m
Length of Day
11h 48m
Waning Crescent, 26% of the Moon is Illuminated
Sep 29
Waning Crescent
Oct 4
New
Oct 11
First Quarter
Oct 18
Full
Oct 26
Last Quarter

Hourly Weather History & Observations

Time (PDT) Temp. Dew Point Humidity Pressure Visibility Wind Dir Wind Speed Gust Speed Precip Events Conditions
12:52 AM 63.0 °F 33.1 °F 33% 29.76 in - SSW 19.6 mph 27.6 mph N/A   Unknown
1:52 AM 63.0 °F 34.0 °F 34% 29.74 in - SSW 21.9 mph 28.8 mph N/A   Unknown
2:52 AM 62.1 °F 32.0 °F 32% 29.72 in - South 28.8 mph 35.7 mph N/A   Unknown
3:52 AM 63.0 °F 30.0 °F 29% 29.73 in - SSW 23.0 mph 42.6 mph N/A   Unknown
4:52 AM 62.1 °F 30.0 °F 30% 29.75 in - South 18.4 mph 26.5 mph N/A   Unknown
5:52 AM 62.1 °F 30.9 °F 31% 29.77 in - SSW 18.4 mph 26.5 mph N/A   Unknown
6:52 AM 61.0 °F 32.0 °F 34% 29.76 in - SSW 24.2 mph 35.7 mph N/A   Unknown
7:52 AM 60.1 °F 33.1 °F 36% 29.75 in - SSW 24.2 mph 32.2 mph N/A   Unknown
8:52 AM 61.0 °F 35.1 °F 38% 29.76 in - SSW 18.4 mph 28.8 mph N/A   Unknown
9:52 AM 63.0 °F 35.1 °F 35% 29.74 in - SSW 26.5 mph 36.8 mph N/A   Unknown
10:52 AM 64.0 °F 36.0 °F 35% 29.75 in - SSW 33.4 mph 46.0 mph N/A   Unknown
11:52 AM 64.0 °F 36.0 °F 35% 29.73 in - SSW 25.3 mph 40.3 mph N/A   Unknown
12:52 PM 66.0 °F 37.9 °F 36% 29.72 in - SSW 27.6 mph 43.7 mph N/A   Unknown
1:52 PM 66.0 °F 39.9 °F 38% 29.70 in - SW 33.4 mph 42.6 mph N/A   Unknown
2:52 PM 66.9 °F 39.9 °F 37% 29.70 in - SSW 24.2 mph 35.7 mph N/A   Unknown
3:52 PM 66.0 °F 42.1 °F 42% 29.69 in - SSW 24.2 mph 36.8 mph N/A   Unknown
4:52 PM 66.9 °F 41.0 °F 39% 29.68 in - SSW 17.3 mph 28.8 mph N/A   Unknown
5:52 PM 66.9 °F 42.1 °F 40% 29.68 in - SSW 20.7 mph 29.9 mph N/A   Unknown
6:52 PM 64.0 °F 45.0 °F 50% 29.70 in - SW 12.7 mph - N/A   Unknown
7:52 PM 64.0 °F 43.0 °F 46% 29.70 in - SSW 19.6 mph 26.5 mph N/A   Unknown
8:52 PM 60.1 °F 46.0 °F 60% 29.71 in - SSW 18.4 mph 28.8 mph N/A   Unknown
9:52 PM 62.1 °F 44.1 °F 52% 29.68 in - SSW 26.5 mph 35.7 mph N/A   Unknown
10:52 PM 62.1 °F 43.0 °F 50% 29.70 in - SSW 25.3 mph 33.4 mph N/A   Unknown
11:52 PM 63.0 °F 43.0 °F 48% 29.70 in - SSW 26.5 mph 39.1 mph N/A   Unknown